Printer-friendly version

IAU Minor Planet Center

Minor Planet Center

MPEC 2005-T14 : 2005 TA

The following Minor Planet Electronic Circular may be linked-to from your own Web pages, but must not otherwise be redistributed electronically.


Read MPEC 2005-T13 Read MPEC 2005-T15


M.P.E.C. 2005-T14                                Issued 2005 Oct. 2, 16:19 UT

     The Minor Planet Electronic Circulars contain information on unusual
         minor planets and routine data on comets.  They are published
   on behalf of Commission 20 of the International Astronomical Union by the
          Minor Planet Center, Smithsonian Astrophysical Observatory,
                          Cambridge, MA 02138, U.S.A.

                  Supported in part by the Brinson Foundation
             Prepared using the Tamkin Foundation Computer Network

                              MPC@CFA.HARVARD.EDU
          URL http://cfa-www.harvard.edu/iau/mpc.html  ISSN 1523-6714

                                    2005 TA

Observations:
     K05T00A* C2005 10 01.59341 01 48 37.54 -28 16 14.5          17.7 V ET014E12
     K05T00A  C2005 10 01.59611 01 48 45.97 -28 15 57.3          18.4 V ET014E12
     K05T00A  C2005 10 01.59884 01 48 55.04 -28 15 38.7          18.2 V ET014E12
     K05T00A  C2005 10 01.60159 01 49 03.46 -28 15 20.5          18.0 V ET014E12
     K05T00A  C2005 10 01.65572 01 51 58.35 -28 08 35.4          18.6 V ET014E12
     K05T00A  C2005 10 01.65724 01 52 03.43 -28 08 22.4          18.2 V ET014E12
     K05T00A  C2005 10 01.65878 01 52 08.36 -28 08 10.2          18.4 V ET014E12
     K05T00A  C2005 10 01.66031 01 52 13.40 -28 07 57.4          18.2 V ET014E12
     K05T00A  C2005 10 01.72913 01 56 05.49 -27 57 19.5          18.5 V ET014E12
     K05T00A  C2005 10 01.73124 01 56 12.87 -27 56 58.2          18.1 V ET014E12
     K05T00A  C2005 10 01.73333 01 56 20.07 -27 56 36.3          18.3 V ET014E12
     K05T00A  C2005 10 01.73544 01 56 27.45 -27 56 14.6          18.1 V ET014E12
     K05T00A  C2005 10 01.77212 01 58 38.02 -27 49 37.2          18.3 V ET014E12
     K05T00A  C2005 10 01.77245 01 58 39.21 -27 49 33.4          18.1 V ET014E12
     K05T00A  C2005 10 01.77274 01 58 40.26 -27 49 30.3          18.3 V ET014E12
     K05T00A  C2005 10 01.77308 01 58 41.48 -27 49 27.1          18.9 V ET014E12
     K05T00A  C2005 10 02.58831 03 06 27.57 -24 12 15.7          18.1 V ET014E12
     K05T00A  C2005 10 02.58856 03 06 28.94 -24 12 10.9          17.8 V ET014E12
     K05T00A  C2005 10 02.58882 03 06 30.34 -24 12 03.7          17.1 V ET014E12
     K05T00A  C2005 10 02.58907 03 06 31.60 -24 11 58.3          18.5 V ET014E12
     K05T00A  C2005 10 02.58966 03 06 34.84 -24 11 44.3          18.1 V ET014E12
     K05T00A  C2005 10 02.58992 03 06 36.21 -24 11 39.1          17.9 V ET014E12
     K05T00A  C2005 10 02.59016 03 06 37.51 -24 11 33.2          17.6 V ET014E12
     K05T00A  C2005 10 02.59042 03 06 38.95 -24 11 27.4          17.7 V ET014E12
     K05T00A  C2005 10 02.59131 03 06 43.74 -24 11 06.3          17.9 V ET014E12
     K05T00A  C2005 10 02.59183 03 06 46.44 -24 10 53.9          18.5 V ET014E12
     K05T00A  C2005 10 02.59208 03 06 47.91 -24 10 48.1          17.5 V ET014E12

Observer details:
E12 Siding Spring Survey.  Observer R. H. McNaught.  Measurers E. C. Beshore,
    C. M. Casey, E. J. Christensen, G. J. Garradd, A. D. Grauer, R. E. Hill,
    S. M. Larson, R. H. McNaught.  0.5-m Uppsala Schmidt + CCD.

Orbital elements:
2005 TA
Epoch 2005 Aug. 18.0 TT = JDT 2453600.5                 MPC
M 308.08878              (2000.0)            P               Q
n   0.66389229     Peri.   31.99555     +0.68759743     -0.72600400
a   1.3013805      Node    14.57486     +0.65634367     +0.61480870
e   0.2597752      Incl.    2.57645     +0.31052015     +0.30810461
P   1.48           H   27.3           G   0.15           U   6
Residuals in seconds of arc
051001 E12  0.2+  0.3-    051001 E12  0.4+  0.2-    051002 E12  0.4+  0.5+
051001 E12  2.0-  0.9-    051001 E12  0.6-  0.3+    051002 E12  0.8-  0.0
051001 E12  3.0+  0.4-    051001 E12  0.4-  0.2+    051002 E12  0.1+  0.3+
051001 E12  1.6-  0.7-    051001 E12  0.2+  0.5+    051002 E12  0.4-  0.6-
051001 E12  0.1-  0.1-    051001 E12  0.1+  0.6+    051002 E12  0.3-  0.3-
051001 E12  1.2+  0.4+    051001 E12  0.0   0.4+    051002 E12  0.3+  0.5-
051001 E12  0.4-  0.1-    051001 E12  0.1-  0.2-    051002 E12  0.2+  0.2-
051001 E12  0.3-  0.0     051002 E12  0.1+  0.3+    051002 E12  1.2-  0.0
051001 E12  0.2-  0.1+    051002 E12  0.5+  0.7-    051002 E12  0.4+  0.0

Ephemeris:
2005 TA                  a,e,i = 1.30, 0.26, 3                   q = 0.9633
Date    TT    R. A. (2000) Decl.     Delta      r     Elong.  Phase     V
2005 09 27.0  23 53.15   -28 50.4    0.0201   1.020   149.2    30.2    20.2
2005 09 27.5  23 58.33   -28 58.0    0.0187   1.018   149.0    30.5    20.0
2005 09 28.0  00 04.35   -29 05.6    0.0173   1.017   148.8    30.7    19.9
2005 09 28.5  00 11.44   -29 12.8    0.0160   1.016   148.6    30.9    19.7
2005 09 29.0  00 19.88   -29 19.3    0.0146   1.014   148.3    31.2    19.5
2005 09 29.5  00 30.06   -29 24.0    0.0132   1.013   148.0    31.6    19.3
2005 09 30.0  00 42.53   -29 25.4    0.0119   1.012   147.6    32.1    19.1
2005 09 30.5  00 58.04   -29 20.7    0.0106   1.010   146.9    32.8    18.8

2005 10 01.0  01 17.66   -29 04.7    0.00940  1.009   145.7    34.0    18.6
2005 10 01.1  01 22.19   -28 59.4    0.00915  1.009   145.4    34.3    18.5
2005 10 01.2  01 26.96   -28 53.2    0.00892  1.008   145.1    34.6    18.5
2005 10 01.3  01 31.98   -28 46.0    0.00868  1.008   144.7    35.0    18.5
2005 10 01.4  01 37.27   -28 37.6    0.00845  1.008   144.3    35.4    18.4
2005 10 01.5  01 42.83   -28 27.9    0.00822  1.008   143.8    35.9    18.4
2005 10 01.6  01 48.69   -28 16.7    0.00800  1.007   143.3    36.5    18.3
2005 10 01.7  01 54.85   -28 03.8    0.00778  1.007   142.7    37.0    18.3
2005 10 01.8  02 01.35   -27 49.1    0.00756  1.007   142.0    37.7    18.2
2005 10 01.9  02 08.19   -27 32.2    0.00735  1.007   141.3    38.4    18.2
2005 10 02.0  02 15.38   -27 13.0    0.00714  1.006   140.5    39.2    18.1
2005 10 02.1  02 22.95   -26 51.2    0.00695  1.006   139.6    40.1    18.1
2005 10 02.2  02 30.90   -26 26.4    0.00675  1.006   138.6    41.1    18.1
2005 10 02.3  02 39.24   -25 58.5    0.00657  1.006   137.6    42.2    18.0
2005 10 02.4  02 47.98   -25 27.0    0.00639  1.005   136.4    43.4    18.0
2005 10 02.5  02 57.12   -24 51.6    0.00622  1.005   135.1    44.7    18.0
2005 10 02.6  03 06.67   -24 12.1    0.00606  1.005   133.7    46.1    18.0
2005 10 02.7  03 16.61   -23 28.1    0.00591  1.005   132.1    47.6    18.0
2005 10 02.8  03 26.92   -22 39.4    0.00577  1.004   130.5    49.3    18.0
2005 10 02.9  03 37.59   -21 45.7    0.00564  1.004   128.7    51.1    18.0
2005 10 03.0  03 48.60   -20 46.9    0.00552  1.004   126.8    53.0    18.0
2005 10 03.1  03 59.89   -19 43.0    0.00542  1.004   124.7    55.0    18.0
2005 10 03.2  04 11.43   -18 33.9    0.00533  1.003   122.6    57.2    18.0
2005 10 03.3  04 23.18   -17 20.0    0.00525  1.003   120.3    59.4    18.0
2005 10 03.4  04 35.06   -16 01.4    0.00519  1.003   118.0    61.8    18.1
2005 10 03.5  04 47.02   -14 38.8    0.00515  1.003   115.5    64.2    18.1
2005 10 03.6  04 59.01   -13 12.6    0.00512  1.002   113.0    66.7    18.2
2005 10 03.7  05 10.95   -11 43.7    0.00510  1.002   110.5    69.3    18.3
2005 10 03.8  05 22.78   -10 12.7    0.00511  1.002   107.9    71.8    18.4
2005 10 03.9  05 34.44   -08 40.5    0.00513  1.002   105.3    74.4    18.5
2005 10 04.0  05 45.89   -07 08.0    0.00516  1.002   102.8    77.0    18.6
2005 10 04.1  05 57.07   -05 36.1    0.00521  1.001   100.2    79.5    18.7
2005 10 04.2  06 07.94   -04 05.4    0.00528  1.001    97.8    81.9    18.8
2005 10 04.3  06 18.46   -02 36.7    0.00536  1.001    95.4    84.3    18.9
2005 10 04.4  06 28.63   -01 10.6    0.00546  1.001    93.0    86.7    19.0
2005 10 04.5  06 38.41   +00 12.5    0.00557  1.000    90.8    88.9    19.2
2005 10 04.6  06 47.79   +01 32.2    0.00569  1.000    88.6    91.0    19.3
2005 10 04.7  06 56.77   +02 48.3    0.00582  1.000    86.6    93.1    19.4
2005 10 04.8  07 05.36   +04 00.6    0.00597  1.000    84.7    95.0    19.6
2005 10 04.9  07 13.54   +05 09.1    0.00612  0.999    82.8    96.8    19.7
2005 10 05.0  07 21.34   +06 13.8    0.00628  0.999    81.1    98.5    19.8
2005 10 05.1  07 28.77   +07 14.6    0.00646  0.999    79.5   100.2    20.0
2005 10 05.2  07 35.82   +08 11.9    0.00664  0.999    77.9   101.7    20.1
2005 10 05.3  07 42.53   +09 05.6    0.00682  0.998    76.5   103.1    20.3
2005 10 05.4  07 48.91   +09 56.0    0.00702  0.998    75.1   104.5    20.4
2005 10 05.5  07 54.96   +10 43.2    0.00722  0.998    73.9   105.7    20.5
2005 10 05.6  08 00.71   +11 27.4    0.00743  0.998    72.7   106.9    20.6
2005 10 05.7  08 06.18   +12 08.7    0.00764  0.997    71.6   108.0    20.8
2005 10 05.8  08 11.37   +12 47.5    0.00785  0.997    70.5   109.1    20.9
2005 10 05.9  08 16.30   +13 23.8    0.00807  0.997    69.5   110.0    21.0
2005 10 06.0  08 21.00   +13 57.9    0.00830  0.997    68.6   110.9    21.1
2005 10 06.1  08 25.46   +14 29.8    0.00853  0.997    67.8   111.8    21.2
2005 10 06.2  08 29.71   +14 59.7    0.00876  0.996    67.0   112.6    21.3
2005 10 06.3  08 33.76   +15 27.8    0.00900  0.996    66.2   113.3    21.4
2005 10 06.4  08 37.62   +15 54.2    0.00923  0.996    65.5   114.0    21.5
2005 10 06.5  08 41.30   +16 19.0    0.00947  0.996    64.9   114.7    21.6
2005 10 06.6  08 44.80   +16 42.4    0.00972  0.995    64.2   115.3    21.7
2005 10 06.7  08 48.16   +17 04.4    0.00996  0.995    63.7   115.8    21.8
2005 10 06.8  08 51.36   +17 25.2    0.0102   0.995    63.1   116.4    21.9
2005 10 06.9  08 54.42   +17 44.8    0.0105   0.995    62.6   116.9    22.0
2005 10 07.0  08 57.35   +18 03.3    0.0107   0.995    62.1   117.3    22.1

Gareth V. Williams           (C) Copyright 2005 MPC           M.P.E.C. 2005-T14

Read MPEC 2005-T13 Read MPEC 2005-T15


Our Web policy. Index to the CBAT/MPC/ICQ pages.


Valid HTML 4.01!